Regional Weather Roundup
Issued by NWS Newport/Morehead, NC

Current Version | Previous Version | Graphics & Text | Print | Product List | Glossary On
Versions: 1 2 3 4 5 6 7 8 9 10 11 12 13 14 15 16 17 18 19 20 21 22 23 24 25 26 27 28 29 30 31 32 33 34 35 36 37 38 39 40 41 42 43 44 45 46 47 48 49 50
000 ASUS42 KMHX 251425 RWRMHX WEATHER ROUNDUP FOR EASTERN NORTH CAROLINA NATIONAL WEATHER SERVICE NEWPORT/MOREHEAD CITY NC 1000 AM EDT WED MAY 25 2016 NOTE: "FAIR" INDICATES FEW OR NO CLOUDS BELOW 12,000 FEET WITH NO SIGNIFICANT WEATHER AND/OR OBSTRUCTIONS TO VISIBILITY NCZ015>017-031-032-045>047-102-103-251500- NORTH COAST CITY SKY/WX TMP DP RH WIND PRES REMARKS EDENTON SUNNY 76 76 100 SW6 30.22S ELIZABETH CITY SUNNY 78 59 51 W12 30.20S KITTY HAWK MOSUNNY 77 60 55 W8 30.20S MANTEO SUNNY 76 62 62 W5 30.21F $$ NCZ045>047-081-094-103-104-251500- CENTRAL COAST CITY SKY/WX TMP DP RH WIND PRES REMARKS FRISCO SUNNY 73 64 73 W10 30.23R $$ NCZ095-097-098-100-101-251500- SOUTHERN COAST CITY SKY/WX TMP DP RH WIND PRES REMARKS BEAUFORT SUNNY 76 63 64 W6 30.24S CEDAR ISLAND NOT AVBL JACKSONVILLE SUNNY 78 63 59 W7 30.24S PINEY ISLAND SUNNY N/A N/A N/A W9 30.23S WILMINGTON SUNNY 79 61 53 W9 30.25S $$ NCZ011>013-027>030-043-044-078>080-089-090>093-098-251500- COASTAL PLAIN CITY SKY/WX TMP DP RH WIND PRES REMARKS AHOSKIE SUNNY 75 59 58 CALM 30.21S CLINTON SUNNY 77 67 71 SW3 30.24S ELIZABETHTOWN SUNNY 77 65 66 S5 30.24S GOLDSBORO NOT AVBL GREENVILLE SUNNY 79 63 57 W5 30.23S HAVELOCK SUNNY 78 65 63 SW8 30.25R KENANSVILLE SUNNY 77 64 64 CALM 30.25S KINSTON SUNNY 77 64 65 W6 30.24S NEW BERN SUNNY 77 64 64 W6 30.25R RICHLANDS SUNNY 79 66 64 SW8 30.24F ROCKY MOUNT SUNNY 76 63 64 W6 30.22S WASHINGTON SUNNY 77 63 61 W8 30.23R WHITEVILLE SUNNY 77 66 68 CALM 30.24S $$ AMZ130-135-150-152-154-156-158-170-250-252-270-ANZ085-086-088-633-658-670-251500- MARINE OBSERVATIONS STATION/POSITION TIME TEMP WIND PRES WAVE SWELL AIR SEA DIR/SP/G HT/PER HT/PER (UTC) (F) (DEG/KT/KT) (MB) (FT/S) (FT/S) CHESAPEAKE LIGHT 1400 71 280/ 11/ 12 1022.7 64 E VA BEACH 1350 60 57 250/ 6/ 8 1022.0 3/ 5 3/ 5 DUCK 1400 72 61 240/ 10/ 13 1022.0 2 E DUCK 1311 62 N/A 2/ 9 OREGON INLET 1300 71 68 250/ 6/ 8 1022.8 13E OREGON INLT 1400 64 N/A 3/ 5 3/ 5 HATTERAS CG 1306 70 68 270/ 13/ 15 1023.0 DIAMOND BUOY 1350 67 69 260/ 10/ 10 1023.8 3/ 9 2/ 9 CAPE LOOKOUT 1400 73 260/ 8/ 9 1023.8 BEAUFORT LAB 1300 73 68 300/ 2/ 5 1023.2 30 SE NEW RVR IN 1325 73 N/A 2/ 4 27 SE WRIGHTSVLE 1408 74 73 280/ 6/ 8 1023.9 5 SE WRIGHTSVLE 1308 72 72 260/ 6/ 8 1024.9 225 S CAPE HAT 1350 74 78 40/ 6/ 10 1024.5 3/ 9 3/ 9 41 SE CHARLESTON 1350 76 76 230/ 2/ 4 1024.4 2/ 8 2/ 8 $$

USA.gov is the U.S. government's official web portal to all federal, state and local government web resources and services.